Cincinnati, OH

8:04 PM EST on December 02, 2016 (GMT -0500)
Cincinnati Municipal-Lunken

Weather History for KLUK - February, 2013

Change the Weather History Date:

Sunday, February 24, 2013

  Actual Average Record
Temperature  
Mean Temperature 36 °F -  
Max Temperature 44 °F 46 °F 71 °F (1961)
Min Temperature 27 °F 27 °F -8 °F (2015)
Degree Days  
Heating Degree Days 29    
Moisture  
Dew Point 23 °F    
Average Humidity 67    
Maximum Humidity 89    
Minimum Humidity 42    
Precipitation  
Precipitation 0.00 in - - ()
Sea Level Pressure  
Sea Level Pressure 30.11 in    
Wind  
Wind Speed 5 mph (NNW)    
Max Wind Speed 10 mph    
Max Gust Speed -    
Visibility 10 miles    
Events      
Averages and records for this station are not official NWS values.
T = Trace of Precipitation, MM = Missing Value Source: NWS Daily Summary

Daily Weather History Graph

Daily Weather History Graph

Search for Another Location

Airport or City:

Trip Planner

Search our weather history database for the weather conditions in past years. The results will help you decide how hot, cold, wet, or windy it might be!

Date:

Astronomy

Feb. 24, 2013 Rise Set
Actual Time 7:17 AM EST 6:25 PM EST
Civil Twilight 6:50 AM EST 6:52 PM EST
Nautical Twilight 6:19 AM EST 7:23 PM EST
Astronomical Twilight 5:48 AM EST 7:54 PM EST
Moon 5:35 PM EST (2/24) 6:13 AM EST (2/24)
Length of Visible Light 12h 02m
Length of Day
11h 08m
Waxing Gibbous, 99% of the Moon is Illuminated
Feb 24
Waxing Gibbous
Feb 25
Full
Mar 4
Last Quarter
Mar 11
New
Mar 19
First Quarter

Hourly Weather History & Observations

Time (EST) Temp. Windchill Dew Point Humidity Pressure Visibility Wind Dir Wind Speed Gust Speed Precip Events Conditions
12:53 AM 32.0 °F 27.5 °F 23.0 °F 69% 29.99 in 10.0 mi West 4.6 mph - N/A   Clear
1:53 AM 30.0 °F 25.2 °F 23.0 °F 75% 30.00 in 10.0 mi WNW 4.6 mph - N/A   Clear
2:53 AM 30.0 °F 25.2 °F 24.1 °F 79% 30.02 in 10.0 mi North 4.6 mph - N/A   Scattered Clouds
3:03 AM 30.2 °F 26.7 °F 24.8 °F 80% 30.01 in 9.0 mi North 3.5 mph - N/A   Mostly Cloudy
3:53 AM 30.0 °F 25.2 °F 24.1 °F 79% 30.01 in 9.0 mi NW 4.6 mph - N/A   Mostly Cloudy
4:53 AM 28.9 °F 19.8 °F 21.9 °F 75% 30.04 in 10.0 mi NNW 10.4 mph - N/A   Overcast
5:53 AM 28.0 °F 21.7 °F 21.0 °F 75% 30.06 in 10.0 mi North 5.8 mph - N/A   Overcast
6:53 AM 28.0 °F 24.2 °F 21.0 °F 75% 30.10 in 10.0 mi Variable 3.5 mph - N/A   Overcast
7:53 AM 28.0 °F 24.2 °F 21.0 °F 75% 30.11 in 10.0 mi WNW 3.5 mph - N/A   Overcast
8:53 AM 28.0 °F 21.7 °F 21.0 °F 75% 30.14 in 10.0 mi WNW 5.8 mph - N/A   Mostly Cloudy
9:53 AM 30.0 °F 23.2 °F 21.0 °F 69% 30.16 in 10.0 mi NNW 6.9 mph - N/A   Overcast
10:53 AM 34.0 °F 31.0 °F 21.0 °F 59% 30.16 in 10.0 mi North 3.5 mph - N/A   Partly Cloudy
11:53 AM 35.1 °F - 21.9 °F 59% 30.16 in 10.0 mi Calm Calm - N/A   Partly Cloudy
12:53 PM 39.0 °F 32.8 °F 21.9 °F 50% 30.15 in 10.0 mi West 9.2 mph - N/A   Clear
1:53 PM 39.9 °F 36.7 °F 21.9 °F 49% 30.14 in 10.0 mi Variable 4.6 mph - N/A   Clear
2:53 PM 42.1 °F 37.7 °F 23.0 °F 47% 30.12 in 10.0 mi SSW 6.9 mph - N/A   Clear
3:53 PM 44.1 °F 40.8 °F 21.9 °F 42% 30.12 in 10.0 mi North 5.8 mph - N/A   Clear
4:53 PM 44.1 °F 40.1 °F 21.9 °F 42% 30.13 in 10.0 mi North 6.9 mph - N/A   Clear
5:53 PM 41.0 °F 35.2 °F 21.9 °F 47% 30.14 in 10.0 mi North 9.2 mph - N/A   Clear
6:53 PM 37.0 °F 32.4 °F 21.9 °F 54% 30.14 in 10.0 mi North 5.8 mph - N/A   Clear
7:53 PM 35.1 °F - 23.0 °F 61% 30.17 in 10.0 mi Calm Calm - N/A   Clear
8:53 PM 28.9 °F - 24.1 °F 82% 30.18 in 10.0 mi Calm Calm - N/A   Clear
9:53 PM 28.9 °F - 24.1 °F 82% 30.19 in 10.0 mi Calm Calm - N/A   Clear
10:53 PM 28.0 °F - 25.0 °F 88% 30.19 in 10.0 mi Calm Calm - N/A   Clear
11:53 PM 27.0 °F - 24.1 °F 89% 30.18 in 10.0 mi Calm Calm - N/A   Clear